This is the latest recevied weather packets stored in our database for station/object CN8UN-10. If no packets are shown the sender has not sent any weather packets the latest 1 day(s).
| Time | Temp. | Humidity | Pressure | Rain* | Wind** | Luminosity | Snow |
|---|---|---|---|---|---|---|---|
| 1778003996 | 19.44° C | 100% | 0 hPa | 0 mm | 1.34 m/s, 11° | - | - |
| 1778003696 | 19.44° C | 100% | 0 hPa | 0 mm | 2.68 m/s, 11° | - | - |
| 1778003396 | 19.44° C | 100% | 0 hPa | 0 mm | 1.79 m/s, 21° | - | - |
| 1778003096 | 19.44° C | 100% | 0 hPa | 0 mm | 2.68 m/s, 47° | - | - |
| 1778002796 | 20° C | 100% | 0 hPa | 0 mm | 2.24 m/s, 1° | - | - |
| 1778002496 | 20° C | 100% | 0 hPa | 0 mm | 4.47 m/s, 19° | - | - |
| 1778002196 | 20° C | 100% | 0 hPa | 0 mm | 4.02 m/s, 4° | - | - |
| 1778001896 | 20° C | 100% | 0 hPa | 0 mm | 2.24 m/s, 1° | - | - |
| 1778001596 | 20° C | 100% | 0 hPa | 0 mm | 3.58 m/s, 344° | - | - |
| 1778001296 | 20° C | 100% | 0 hPa | 0 mm | 2.68 m/s, 14° | - | - |
| 1778000996 | 20° C | 100% | 0 hPa | 0 mm | 4.47 m/s, 354° | - | - |
| 1778000696 | 20° C | 100% | 0 hPa | 0 mm | 0.89 m/s, 60° | - | - |
| 1778000396 | 20° C | 100% | 0 hPa | 0 mm | 1.79 m/s, 348° | - | - |
| 1778000096 | 20° C | 100% | 0 hPa | 0 mm | 1.34 m/s, 341° | - | - |
| 1777999796 | 20° C | 100% | 0 hPa | 0 mm | 3.13 m/s, 8° | - | - |
| 1777999496 | 20° C | 100% | 0 hPa | 0 mm | 1.34 m/s, 334° | - | - |
| 1777999196 | 20° C | 100% | 0 hPa | 0 mm | 3.13 m/s, 11° | - | - |
| 1777998896 | 20° C | 100% | 0 hPa | 0 mm | 2.68 m/s, 316° | - | - |
| 1777998597 | 20° C | 100% | 0 hPa | 0 mm | 3.13 m/s, 316° | - | - |
| 1777998296 | 20° C | 100% | 0 hPa | 0 mm | 2.24 m/s, 312° | - | - |
| 1777997996 | 20° C | 100% | 0 hPa | 0 mm | 0 m/s | - | - |
| 1777997696 | 20° C | 100% | 0 hPa | 0 mm | 3.58 m/s, 358° | - | - |
| 1777997396 | 20° C | 100% | 0 hPa | 0 mm | 3.13 m/s, 338° | - | - |
| 1777997097 | 20° C | 100% | 0 hPa | 0 mm | 4.02 m/s, 338° | - | - |
| 1777996796 | 20° C | 100% | 0 hPa | 0 mm | 1.79 m/s, 286° | - | - |
* Rain latest hour (hover to see other rain measurements)
** Current wind speed in m/s (hover to see current wind gust speed)